Flag for U.S.A. Weather past 2 weeks in Peoria, Illinois, U.S.A.

Now
36 °F

Overcast.


Feels Like: 28 °F
Forecast: 32 / 46 °F
Wind: 12 mph from West

Location: Greater Peoria Regional Airport

Current Time: Dec 25, 2014 at 3:31:33 AM

Latest Report: Dec 25, 2014 at 2:54 AM


Visibility: 10 mi

Pressure: 29.86 "Hg

Humidity: 73%

Dew point: 28 °F

Location of PeoriaLocation

Historic Weather in Peoria — Graph

°F

Peoria temperature yesterday

Maximum temperature yesterday: 39 °F (at 12:54 AM)
Minimum temperature yesterday: 36 °F (at 5:54 AM)
Average temperature yesterday: 37 °F

Past Weeks' High & Low Weather Summary

 TemperatureHumidityPressure
High52 °F (Dec 13, 2:54 PM)97% (Dec 14, 9:54 PM)30.44 "Hg (Dec 14, 9:54 PM)
Low19 °F (Dec 18, 5:54 AM)54% (Dec 19, 12:54 PM)29.49 "Hg (Dec 22, 11:54 PM)
Average36 °F78%30.09 "Hg
* Reported Dec 10 1:54 AM — Dec 25 1:54 AM, Peoria, Weather by CustomWeather, © 2014

Note: Actual official high and low records may vary slightly from our data, if they occured in-between our weather recording intervals... More about our weather records

Advertising

Peoria weather history for previous 24 hours

 ConditionsComfort  
Time TempWeatherWind HumidityBarometerVisibility
1:54 AM
Dec 25
37 °FOvercast.8 mph73%29.84 "Hg10 mi
12:54 AM37 °FOvercast.10 mph73%29.81 "Hg10 mi
11:54 PM
Dec 24
37 °FOvercast.14 mph70%29.79 "Hg10 mi
10:54 PM37 °FOvercast.14 mph76%29.76 "Hg10 mi
9:54 PM38 °FOvercast.10 mph76%29.74 "Hg10 mi
8:54 PM38 °FOvercast.9 mph83%29.72 "Hg5 mi
7:54 PM38 °FOvercast.9 mph83%29.70 "Hg10 mi
6:54 PM38 °FOvercast.10 mph79%29.68 "Hg10 mi
5:54 PM38 °FOvercast.9 mph79%29.66 "Hg10 mi
4:54 PM37 °FOvercast.10 mph82%29.64 "Hg9 mi
3:54 PM37 °FLight rain. Overcast.9 mph82%29.62 "Hg5 mi
2:54 PM38 °FLight rain. Overcast.9 mph83%29.60 "Hg7 mi
1:54 PM38 °FLow clouds.9 mph83%29.59 "Hg10 mi
12:54 PM38 °FMostly cloudy.13 mph83%29.60 "Hg7 mi
11:54 AM38 °FLow clouds.9 mph83%29.62 "Hg6 mi
10:54 AM38 °FMostly cloudy.8 mph83%29.64 "Hg8 mi
10:01 AM38 °FFog.7 mph86%29.65 "Hg3 mi
8:54 AM37 °FFog.6 mph89%29.68 "Hg1 mi
7:54 AM37 °FFog.3 mph89%29.68 "Hg1 mi
6:54 AM37 °FFog.No wind89%29.67 "Hg1 mi
5:54 AM36 °FFog.5 mph89%29.68 "Hg6 mi
4:54 AM37 °FLow clouds.7 mph82%29.68 "Hg9 mi
3:54 AM37 °FMostly cloudy.No wind82%29.70 "Hg10 mi
Weather by CustomWeather, © 2014

See weather overviewHow to use our weather pages